Location: Asheville, NC
(35.6000°N, 82.5500°W)
Time: 20:45:38
(UTC-04:00)

XW-2B - Pass Details

Date: 18 March 2018
Orbit: 510 x 530 km, 97.5° (Epoch: 20 June)

Event Time Altitude Azimuth Distance (km) Brightness Sun altitude
Rises 06:36:46 0° 33° (NNE) 2,668 ? -13.0°
Reaches altitude 10° 06:39:35 10° 56° (NE) 1,776 ? -12.4°
Maximum altitude 06:41:57 16° 94° (E) 1,445 ? -11.9°
Drops below altitude 10° 06:44:19 10° 132° (SE) 1,770 ? -11.5°
Sets 06:47:06 0° 155° (SSE) 2,655 ? -10.9°
